When you browse on this site, cookies collect data to enhance your experience and personalize the content and advertising you see.
Visit our Privacy Policy to learn more. By continuing to use the site, you agree to this use of cookies and data.
  • în România
  • Lista ţărilor
  • Pe 7 zile
  • Temperatura apei
  • Meteo pe hartă
  • Widget-uri
  • user-avatar
    Intrare

    Meteo pe oră la Izvarino

    Astăzi, 18 Septembrie, Miercuri

    Timp Temperatura Precipitaţii Vânt Presiune Umiditate
    00:00 +5°C° 0 mm 4 m/s 730 mmHg 88%
    01:00 +5°C° 0 mm 4 m/s 730 mmHg 89%
    02:00 +5°C° 0 mm 4 m/s 730 mmHg 90%
    03:00 +4°C° 0 mm 4 m/s 730 mmHg 91%
    04:00 +4°C° 0 mm 3 m/s 730 mmHg 91%
    05:00 +4°C° 0 mm 3 m/s 729 mmHg 91%
    06:00 +4°C° 0 mm 3 m/s 729 mmHg 91%
    07:00 +5°C° 0 mm 3 m/s 729 mmHg 86%
    08:00 +7°C° 0 mm 3 m/s 729 mmHg 80%
    09:00 +9°C° 0 mm 3 m/s 729 mmHg 75%
    10:00 +8°C° 0.6 mm 3 m/s 728 mmHg 80%
    11:00 +8°C° 0.6 mm 3 m/s 728 mmHg 84%
    12:00 +8°C° 0.6 mm 2 m/s 728 mmHg 89%
    13:00 +8°C° 0.7 mm 2 m/s 727 mmHg 88%
    14:00 +8°C° 0.7 mm 2 m/s 727 mmHg 88%
    15:00 +9°C° 0.7 mm 1 m/s 727 mmHg 88%
    16:00 +8°C° 0.1 mm 2 m/s 726 mmHg 88%
    17:00 +8°C° 0.1 mm 2 m/s 726 mmHg 89%
    18:00 +8°C° 0.1 mm 2 m/s 726 mmHg 90%
    19:00 +8°C° 0.1 mm 3 m/s 726 mmHg 91%
    20:00 +6°C° 0.1 mm 4 m/s 726 mmHg 91%
    21:00 +6°C° 0.1 mm 4 m/s 727 mmHg 92%
    22:00 +5°C° 0 mm 4 m/s 727 mmHg 92%
    23:00 +5°C° 0 mm 4 m/s 728 mmHg 92%

    Mâine, 19 Septembrie, Joi

    Timp Temperatura Precipitaţii Vânt Presiune Umiditate
    00:00 +4°C° 0 mm 4 m/s 728 mmHg 93%
    01:00 +4°C° 0 mm 4 m/s 729 mmHg 93%
    02:00 +4°C° 0 mm 4 m/s 730 mmHg 94%
    03:00 +4°C° 0 mm 4 m/s 730 mmHg 95%
    04:00 +4°C° 0 mm 4 m/s 731 mmHg 95%
    05:00 +3°C° 0 mm 4 m/s 732 mmHg 96%
    06:00 +2°C° 0 mm 5 m/s 732 mmHg 96%
    07:00 +3°C° 0 mm 5 m/s 733 mmHg 96%
    08:00 +3°C° 0 mm 5 m/s 734 mmHg 95%
    09:00 +5°C° 0 mm 5 m/s 735 mmHg 94%
    10:00 +5°C° 0 mm 5 m/s 735 mmHg 91%
    11:00 +6°C° 0 mm 4 m/s 736 mmHg 88%
    12:00 +7°C° 0 mm 4 m/s 736 mmHg 86%
    13:00 +7°C° 0.2 mm 4 m/s 736 mmHg 82%
    14:00 +8°C° 0.2 mm 4 m/s 737 mmHg 78%
    15:00 +9°C° 0.2 mm 5 m/s 737 mmHg 74%
    16:00 +8°C° 0.2 mm 4 m/s 737 mmHg 77%
    17:00 +7°C° 0.2 mm 4 m/s 738 mmHg 80%
    18:00 +8°C° 0.2 mm 3 m/s 738 mmHg 82%
    19:00 +7°C° 0 mm 3 m/s 738 mmHg 85%
    20:00 +5°C° 0 mm 3 m/s 739 mmHg 88%
    21:00 +4°C° 0 mm 3 m/s 739 mmHg 91%
    22:00 +4°C° 0.1 mm 3 m/s 739 mmHg 91%
    23:00 +5°C° 0.1 mm 2 m/s 739 mmHg 91%

    Poimâine, 20 Septembrie, Vineri

    Timp Temperatura Precipitaţii Vânt Presiune Umiditate
    00:00 +5°C° 0.1 mm 2 m/s 739 mmHg 92%
    01:00 +4°C° 0 mm 2 m/s 739 mmHg 92%
    02:00 +4°C° 0 mm 2 m/s 739 mmHg 93%
    03:00 +3°C° 0 mm 2 m/s 739 mmHg 93%
    04:00 +3°C° 0 mm 2 m/s 739 mmHg 93%
    05:00 +4°C° 0 mm 1 m/s 739 mmHg 93%
    06:00 +4°C° 0 mm 1 m/s 739 mmHg 93%
    07:00 +4°C° 0 mm 1 m/s 739 mmHg 88%
    08:00 +5°C° 0 mm 1 m/s 739 mmHg 83%
    09:00 +6°C° 0 mm 1 m/s 740 mmHg 79%
    10:00 +7°C° 0 mm 1 m/s 740 mmHg 72%
    11:00 +8°C° 0 mm 1 m/s 740 mmHg 65%
    12:00 +9°C° 0 mm 1 m/s 740 mmHg 59%
    13:00 +9°C° 0 mm 1 m/s 740 mmHg 56%
    14:00 +9°C° 0 mm 1 m/s 740 mmHg 54%
    15:00 +10°C° 0 mm 1 m/s 740 mmHg 52%
    16:00 +9°C° 0 mm 1 m/s 740 mmHg 56%
    17:00 +8°C° 0 mm 1 m/s 740 mmHg 60%
    18:00 +8°C° 0 mm 1 m/s 740 mmHg 64%
    19:00 +7°C° 0 mm 1 m/s 740 mmHg 65%
    20:00 +6°C° 0 mm 1 m/s 740 mmHg 66%
    21:00 +6°C° 0 mm 1 m/s 740 mmHg 67%
    22:00 +5°C° 0 mm 1 m/s 741 mmHg 68%
    23:00 +5°C° 0 mm 1 m/s 741 mmHg 69%

    21 Septembrie, Sâmbătă

    Timp Temperatura Precipitaţii Vânt Presiune Umiditate
    00:00 +5°C° 0 mm 1 m/s 741 mmHg 71%
    01:00 +5°C° 0 mm 1 m/s 741 mmHg 74%
    02:00 +3°C° 0 mm 2 m/s 741 mmHg 78%
    03:00 +3°C° 0 mm 2 m/s 741 mmHg 82%
    04:00 +3°C° 0 mm 2 m/s 742 mmHg 82%
    05:00 +3°C° 0 mm 2 m/s 742 mmHg 82%
    06:00 +2°C° 0 mm 2 m/s 742 mmHg 83%
    07:00 +2°C° 0 mm 3 m/s 742 mmHg 80%
    08:00 +3°C° 0 mm 3 m/s 743 mmHg 78%
    09:00 +4°C° 0 mm 3 m/s 743 mmHg 75%
    10:00 +5°C° 0 mm 3 m/s 743 mmHg 68%
    11:00 +7°C° 0 mm 3 m/s 743 mmHg 62%
    12:00 +8°C° 0 mm 3 m/s 743 mmHg 55%
    13:00 +9°C° 0 mm 3 m/s 743 mmHg 54%
    14:00 +9°C° 0 mm 3 m/s 743 mmHg 53%
    15:00 +9°C° 0 mm 3 m/s 743 mmHg 52%
    16:00 +8°C° 0 mm 2 m/s 743 mmHg 57%
    17:00 +7°C° 0 mm 2 m/s 742 mmHg 61%
    18:00 +7°C° 0 mm 1 m/s 742 mmHg 66%
    19:00 +6°C° 0 mm 2 m/s 742 mmHg 70%
    20:00 +5°C° 0 mm 2 m/s 742 mmHg 74%
    21:00 +3°C° 0 mm 3 m/s 742 mmHg 78%
    22:00 +3°C° 0 mm 3 m/s 742 mmHg 78%
    23:00 +3°C° 0 mm 4 m/s 741 mmHg 78%

    22 Septembrie, Duminică

    Timp Temperatura Precipitaţii Vânt Presiune Umiditate
    00:00 +3°C° 0 mm 4 m/s 740 mmHg 78%
    01:00 +2°C° 0.1 mm 5 m/s 739 mmHg 80%
    02:00 +2°C° 0.1 mm 6 m/s 739 mmHg 83%
    03:00 +2°C° 0.1 mm 7 m/s 738 mmHg 85%
    04:00 +2°C° 0.5 mm 7 m/s 736 mmHg 87%
    05:00 +2°C° 0.5 mm 8 m/s 735 mmHg 89%
    06:00 +2°C° 0.5 mm 9 m/s 734 mmHg 92%
    07:00 +5°C° 0.8 mm 8 m/s 733 mmHg 91%
    08:00 +6°C° 0.8 mm 8 m/s 732 mmHg 91%
    09:00 +7°C° 0.8 mm 8 m/s 732 mmHg 91%
    10:00 +8°C° 0.3 mm 9 m/s 732 mmHg 84%
    11:00 +9°C° 0.3 mm 10 m/s 732 mmHg 76%
    12:00 +9°C° 0.3 mm 10 m/s 732 mmHg 69%
    13:00 +9°C° 0 mm 10 m/s 732 mmHg 61%
    14:00 +8°C° 0 mm 10 m/s 733 mmHg 53%
    15:00 +8°C° 0 mm 11 m/s 733 mmHg 44%
    16:00 +7°C° 0 mm 10 m/s 733 mmHg 47%
    17:00 +6°C° 0 mm 9 m/s 734 mmHg 51%
    18:00 +5°C° 0 mm 8 m/s 734 mmHg 54%
    19:00 +4°C° 0 mm 8 m/s 735 mmHg 55%
    20:00 +4°C° 0 mm 8 m/s 735 mmHg 57%
    21:00 +2°C° 0 mm 8 m/s 736 mmHg 58%
    22:00 +1°C° 0 mm 8 m/s 736 mmHg 62%
    23:00 +1°C° 0 mm 8 m/s 736 mmHg 65%

    23 Septembrie, Luni

    Timp Temperatura Precipitaţii Vânt Presiune Umiditate
    00:00 0°C° 0 mm 7 m/s 737 mmHg 68%
    01:00 0°C° 0 mm 7 m/s 737 mmHg 71%
    02:00 0°C° 0 mm 7 m/s 738 mmHg 74%
    03:00 -1°C° 0 mm 7 m/s 738 mmHg 76%
    04:00 -1°C° 0 mm 6 m/s 739 mmHg 78%
    05:00 -1°C° 0 mm 6 m/s 739 mmHg 80%
    06:00 -1°C° 0 mm 5 m/s 740 mmHg 83%
    07:00 0°C° 0 mm 5 m/s 740 mmHg 80%
    08:00 +1°C° 0 mm 5 m/s 741 mmHg 77%
    09:00 +2°C° 0 mm 5 m/s 741 mmHg 74%
    10:00 +4°C° 0 mm 4 m/s 741 mmHg 70%
    11:00 +5°C° 0 mm 4 m/s 741 mmHg 65%
    12:00 +7°C° 0 mm 3 m/s 741 mmHg 61%
    13:00 +8°C° 0 mm 3 m/s 741 mmHg 58%
    14:00 +8°C° 0 mm 3 m/s 741 mmHg 56%
    15:00 +8°C° 0 mm 3 m/s 741 mmHg 54%
    16:00 +8°C° 0 mm 2 m/s 741 mmHg 57%
    17:00 +7°C° 0 mm 2 m/s 741 mmHg 60%
    18:00 +7°C° 0 mm 1 m/s 741 mmHg 63%
    19:00 +7°C° 0.4 mm 1 m/s 741 mmHg 72%
    20:00 +5°C° 0.4 mm 2 m/s 740 mmHg 80%
    21:00 +4°C° 0.4 mm 2 m/s 740 mmHg 88%
    22:00 +5°C° 0.4 mm 1 m/s 740 mmHg 91%
    23:00 +4°C° 0.4 mm 1 m/s 740 mmHg 93%
    Arată mai mult